User: anonymous   Login
Location: Unspecified
(0.0000°N, 0.0000°E)
Time: 15:10:23
(UTC+00:00)
Language:

ALSAT 1N - Orbit

View from above orbital plane
View from above orbital plane
View from above satellite
View from above satellite

Ground track
Ground track

The orbit data is extracted from the following two-line orbital elements,

1 41789U 16059G   19078.76967320  .00000056  00000-0  19806-4 0  9994
2 41789  98.0816 142.1056 0027047 302.2477  57.6103 14.64222862132349
Epoch (UTC): 19 March 2019 18:28:19
Eccentricity: 0.0027047
inclination: 98.0816°
perigee height: 660 km
apogee height: 698 km
right ascension of ascending node: 142.1056°
argument of perigee: 302.2477°
revolutions per day: 14.64222862
mean anomaly at epoch: 57.6103°
orbit number at epoch: 13234

The dashed part of the orbit path shows where the satellite is in the earth's shadow,  

DLR